Overview Statistics Trail Chart Weather Telemetry Raw packets
 

This is the latest recevied weather packets stored in our database for station/object 4S6DRJ-13. If no packets are shown the sender has not sent any weather packets the latest 10 day(s).

<< 463 464 465 466 467 468 469 >>
Time Temp. Humidity Pressure Rain* Wind** Luminosity Snow
1787749099 24.44° C 93% 1009.9 hPa 4.83 mm 2.68 m/s, 295° 0 W/m² -
1787749038 24.44° C 93% 1009.5 hPa 4.83 mm 3.13 m/s, 295° 0 W/m² -
1787748977 24.44° C 93% 1009.7 hPa 4.83 mm 4.02 m/s, 52° 0 W/m² -
1787748916 24.44° C 93% 1009.7 hPa 4.83 mm 1.79 m/s, 176° 0 W/m² -
1787748855 24.44° C 93% 1009.6 hPa 4.83 mm 5.36 m/s, 326° 0 W/m² -
1787748794 24.44° C 93% 1009.7 hPa 4.83 mm 1.79 m/s, 297° 1 W/m² -
1787748733 24.44° C 93% 1009.6 hPa 4.83 mm 2.68 m/s, 286° 1 W/m² -
1787748675 24.44° C 93% 1009.7 hPa 4.57 mm 2.68 m/s, 348° 1 W/m² -
1787748611 24.44° C 92% 1009.9 hPa 4.57 mm 3.13 m/s, 310° 1 W/m² -
1787748550 24.44° C 92% 1009.8 hPa 4.57 mm 2.24 m/s, 338° 1 W/m² -
1787748489 24.44° C 92% 1009.7 hPa 4.57 mm 2.24 m/s, 306° 1 W/m² -
1787748429 24.44° C 92% 1009.7 hPa 4.57 mm 2.24 m/s, 293° 1 W/m² -
1787748367 25° C 92% 1009.7 hPa 4.32 mm 1.79 m/s, 300° 1 W/m² -
1787748306 25° C 92% 1009.7 hPa 4.32 mm 5.81 m/s, 337° 1 W/m² -
1787748245 25° C 91% 1009.7 hPa 4.32 mm 2.24 m/s, 306° 1 W/m² -
1787748184 25° C 91% 1009.8 hPa 4.32 mm 4.92 m/s, 56° 2 W/m² -
1787748124 25° C 91% 1009.8 hPa 3.81 mm 4.92 m/s, 297° 2 W/m² -
1787748062 25.56° C 90% 1009.8 hPa 3.3 mm 3.58 m/s, 314° 2 W/m² -
1787748000 25.56° C 90% 1009.9 hPa 2.79 mm 6.71 m/s, 216° 2 W/m² -
1787747940 25.56° C 89% 1009.8 hPa 2.03 mm 6.71 m/s, 294° 2 W/m² -
1787747879 25.56° C 89% 1009.7 hPa 1.27 mm 1.79 m/s, 285° 2 W/m² -
1787747818 26.11° C 88% 1009.7 hPa 0.76 mm 4.92 m/s, 120° 2 W/m² -
1787747757 26.11° C 87% 1009.6 hPa 0.51 mm 4.92 m/s, 266° 2 W/m² -
1787747696 26.11° C 86% 1009.5 hPa 0.25 mm 6.26 m/s, 302° 3 W/m² -
1787747635 26.67° C 86% 1009.7 hPa 0.25 mm 3.13 m/s, 242° 2 W/m² -

* Rain latest hour (hover to see other rain measurements)
** Current wind speed in m/s (hover to see current wind gust speed)